Wind_Speed
16 15 14 12 13 16 14 14 16 19 23 26 29 33 34 32 32 32 31 34 35 34 35 34 33 33 32 31 30 29 28 27 26 26 24 23 22 21 21 21 21 20 20 21 19 19 19 17 18 18 16 16 15 12 13 14 13 13 12 11 10 9 11
18 15 16 15 15 16 17 15 16 20 23 25 28 32 34 33 33 33 32 34 36 35 36 36 35 34 33 32 30 29 29 28 27 26 25 24 24 23 22 23 22 21 21 21 19 19 19 18 19 20 19 19 17 15 15 16 16 15 14 15 14 12 12
17 15 16 15 13 14 17 16 16 21 26 27 29 32 34 34 34 35 34 34 36 36 36 36 36 35 33 32 31 30 30 29 28 27 26 25 25 24 23 23 24 23 22 21 21 21 21 20 20 21 21 21 19 17 17 17 18 17 17 18 17 15 15
18 18 16 14 13 13 15 16 16 21 29 31 31 33 35 36 35 35 35 35 36 36 36 36 36 35 34 33 32 31 31 31 29 29 27 27 27 25 24 24 24 24 24 23 23 22 22 22 22 21 22 21 20 19 19 19 20 20 19 19 18 17 16
20 20 16 14 13 11 13 16 16 21 27 31 32 33 34 36 35 35 35 35 36 36 36 36 35 35 35 34 33 32 32 32 30 30 29 27 27 27 26 26 26 25 25 25 24 24 23 24 24 24 23 23 21 21 21 21 21 21 20 19 19 18 17
18 18 15 14 14 13 14 17 19 22 27 29 30 30 33 35 35 36 35 34 35 35 35 35 35 36 35 33 32 31 32 32 31 31 30 29 28 28 28 28 28 27 26 26 26 25 26 26 26 26 26 25 23 23 23 23 22 22 22 20 20 19 18
16 18 16 15 13 13 15 17 18 22 25 27 27 28 32 34 35 37 35 35 35 35 36 36 36 36 35 34 33 32 32 32 32 32 31 30 29 29 30 30 29 28 28 28 28 27 28 28 28 28 28 26 25 25 26 25 24 23 23 22 21 20 19
14 17 16 16 15 15 15 14 15 18 21 22 24 27 32 34 35 37 36 35 36 36 36 37 36 36 36 34 34 34 33 32 32 33 32 31 30 30 31 31 30 30 29 29 30 30 29 30 30 30 30 29 28 27 28 28 27 25 25 24 23 21 20
12 17 18 18 18 15 13 12 12 14 17 20 23 27 31 33 34 36 37 36 36 36 37 37 36 35 35 35 35 35 34 33 32 33 32 31 31 31 31 31 31 32 32 31 31 31 31 32 32 32 32 31 30 30 30 30 29 27 26 26 25 24 23
11 16 19 18 18 14 13 14 14 14 15 18 23 27 30 33 33 35 36 36 36 37 37 37 35 34 35 35 35 34 35 34 33 33 33 32 32 32 32 31 31 33 34 32 29 31 33 33 33 33 34 33 33 33 32 32 31 29 28 28 27 27 25
9 14 15 15 16 14 14 15 15 15 14 16 24 28 29 31 33 34 36 36 36 36 36 36 35 33 34 34 34 34 35 35 33 33 34 33 32 33 33 31 31 32 34 32 30 31 33 34 33 34 35 35 35 35 34 33 33 31 29 28 29 29 27
11 13 14 15 16 15 14 14 14 16 14 14 21 26 28 31 33 33 34 36 35 35 36 36 35 34 34 34 34 35 35 36 35 35 35 35 33 33 33 33 31 31 33 33 32 31 32 35 35 35 36 37 36 36 36 34 33 33 30 28 28 29 28
11 8 10 13 13 12 11 12 14 16 14 13 20 26 27 30 33 33 32 34 35 34 35 35 35 35 35 34 34 34 36 37 38 37 36 36 35 34 34 34 32 31 32 33 32 31 31 33 36 37 37 37 36 36 36 35 34 34 32 29 28 29 28
13 12 11 11 11 10 10 11 14 16 15 15 20 26 27 29 33 33 31 33 34 33 34 35 35 35 35 35 34 34 36 38 39 39 38 37 35 34 33 34 33 32 33 33 32 31 30 31 34 36 37 37 37 36 36 35 34 34 33 31 29 29 29
14 15 14 11 10 10 9 9 11 13 15 15 18 23 26 28 31 32 30 32 34 33 33 35 35 35 35 35 34 35 37 38 38 39 39 36 35 35 35 34 34 33 33 33 32 31 30 30 32 34 35 36 36 34 35 35 34 34 35 34 31 30 29
15 16 15 12 10 11 9 9 10 11 13 13 14 19 23 25 29 31 31 31 33 34 33 34 36 35 35 35 35 36 37 37 36 36 36 35 36 37 36 35 34 33 33 34 33 31 29 29 31 32 33 34 34 34 34 34 34 35 36 36 34 31 29
16 16 15 16 14 12 11 10 10 11 12 12 13 17 21 24 26 30 31 31 33 34 33 33 36 36 35 35 35 36 36 36 35 34 34 34 35 37 36 35 33 32 31 31 32 32 30 29 30 31 30 31 33 34 33 32 33 35 37 36 35 31 29
17 14 11 15 14 12 13 14 13 13 14 14 15 18 21 22 23 26 30 32 33 35 33 32 35 37 35 34 35 36 36 36 34 32 32 33 33 34 34 33 31 29 28 27 28 30 30 28 30 30 28 27 30 32 33 31 32 35 38 37 34 31 29
18 14 10 13 15 15 15 15 14 14 15 15 17 21 24 24 23 25 30 31 31 34 33 31 33 36 35 33 35 36 36 34 32 30 30 30 30 30 29 29 28 26 24 23 23 26 28 27 28 29 28 26 27 29 30 30 32 36 37 36 34 32 29
13 14 13 11 15 16 15 13 13 14 16 19 24 27 29 28 27 26 27 28 27 31 33 30 31 34 34 32 34 34 33 32 30 28 27 27 26 26 26 25 25 24 22 21 22 24 25 25 25 27 27 27 28 29 28 28 31 35 36 37 36 34 31
10 12 11 9 12 15 15 14 14 14 16 22 26 27 26 27 28 27 27 27 26 28 30 27 28 32 32 31 31 31 30 29 28 26 25 24 24 24 24 23 23 23 21 21 23 24 24 23 24 25 28 28 27 28 27 25 28 32 35 36 36 34 33
15 13 11 9 9 12 15 16 16 17 20 23 25 25 26 28 28 27 28 29 26 26 26 23 25 30 30 29 28 28 28 28 27 25 25 24 23 23 23 22 22 23 22 21 21 21 21 21 22 24 26 26 25 26 26 24 24 28 31 34 36 34 33
20 18 13 12 12 10 16 20 20 22 23 24 26 27 27 28 28 27 28 28 26 26 24 22 24 28 29 27 27 27 27 27 26 26 25 24 23 21 21 22 21 22 23 21 19 19 18 18 19 19 21 23 24 25 24 22 23 26 29 33 34 32 31
21 20 16 15 15 11 17 23 24 25 28 27 27 29 29 28 28 27 26 26 26 26 23 21 24 27 27 27 26 27 28 27 26 26 25 24 23 21 20 21 21 20 20 20 19 18 18 18 18 18 18 18 20 22 23 22 24 27 28 28 28 27 28
21 22 20 19 20 15 15 25 27 27 28 27 26 29 30 30 30 27 25 25 27 26 23 22 25 26 27 27 26 27 28 27 27 27 25 24 23 22 20 20 19 19 19 19 18 18 17 18 18 17 16 16 17 19 21 22 23 26 26 24 24 24 26
17 19 20 21 25 25 18 24 25 23 24 25 26 29 31 31 29 27 25 25 27 26 24 25 27 28 27 27 26 26 26 26 26 26 25 24 24 22 20 19 18 18 18 17 16 15 14 14 15 15 15 15 16 18 21 20 20 24 25 24 25 25 26
7 12 17 18 23 25 19 21 22 22 24 26 28 30 30 29 26 24 24 25 24 24 25 28 30 29 28 27 25 25 24 24 25 25 24 25 24 22 21 20 18 18 18 15 14 13 11 10 10 11 11 12 14 16 18 19 20 22 23 22 23 24 26
9 13 12 4 7 11 13 14 17 20 22 24 27 28 29 27 24 22 23 23 22 24 27 29 30 30 29 29 27 27 26 26 26 25 25 26 25 23 23 22 19 19 19 16 15 14 11 9 9 8 7 9 12 13 14 16 17 19 21 21 21 21 24
7 9 7 6 11 12 11 9 10 14 18 21 25 25 26 25 22 21 21 20 22 26 28 29 30 31 31 30 29 28 27 27 27 26 25 27 26 24 24 22 19 19 18 16 16 16 13 10 9 8 7 9 12 13 15 16 16 16 17 20 20 21 24
8 8 4 3 7 10 11 9 8 11 14 18 21 22 23 25 23 21 19 21 25 28 29 30 31 31 30 29 28 26 26 26 26 24 24 25 24 22 23 21 19 18 18 16 17 16 12 9 8 9 10 11 11 12 13 15 18 18 17 19 21 22 26
11 9 6 4 3 7 9 8 8 8 10 13 17 18 21 26 25 20 18 22 27 29 29 30 30 29 29 27 26 25 25 24 22 21 22 23 22 22 22 20 20 20 19 17 17 15 13 11 10 12 13 13 13 13 11 11 15 17 16 18 21 23 25
7 7 7 6 4 2 7 9 9 9 11 14 18 20 20 23 26 22 20 24 28 28 29 29 29 28 27 26 25 25 25 23 21 20 21 21 19 20 20 19 19 21 19 16 15 14 13 13 13 13 13 13 12 13 12 11 14 17 17 19 22 22 23
5 4 5 2 3 1 4 7 8 11 13 14 19 22 22 23 25 24 23 25 26 26 28 29 28 27 26 25 25 24 23 21 21 20 20 18 17 17 17 17 18 19 17 14 13 13 12 12 13 14 14 12 11 12 13 11 13 19 22 23 23 23 24
8 10 10 10 10 9 6 5 9 11 10 11 16 22 22 22 23 23 22 22 22 25 27 27 26 24 23 23 23 21 21 21 21 20 18 16 15 16 16 17 17 16 15 13 12 12 13 14 14 14 13 11 11 14 14 12 14 21 26 27 25 24 24
13 14 13 15 18 16 10 8 10 12 11 13 16 20 21 22 22 22 21 20 21 23 25 25 25 23 22 21 21 20 21 21 20 19 19 18 18 18 18 16 15 14 14 11 9 10 11 13 15 15 13 11 13 16 17 15 15 20 26 27 24 22 21
13 13 12 15 18 18 14 14 14 15 15 16 18 20 21 21 21 20 20 20 21 24 26 25 23 22 21 20 19 20 20 19 18 19 20 20 21 22 21 17 13 13 13 10 8 7 5 7 10 12 11 12 15 16 16 16 15 17 21 23 23 21 19
13 13 12 14 17 16 15 16 17 16 15 15 17 19 20 20 20 19 19 19 20 22 24 23 21 20 18 17 18 19 18 18 18 20 21 21 22 24 24 22 18 14 12 10 7 6 4 5 8 10 11 14 17 15 13 13 14 14 17 20 21 20 19
16 16 16 17 18 16 14 15 16 16 16 17 18 19 19 20 19 18 18 19 19 20 21 20 19 18 17 18 19 18 17 18 19 19 20 20 21 21 23 23 20 16 13 11 8 7 6 7 10 12 12 13 16 16 13 12 12 13 16 18 19 19 19
Wind_Direction
204 197 194 204 198 194 198 188 182 193 198 192 189 189 191 193 192 190 187 186 186 187 187 189 190 190 191 191 192 193 192 192 193 192 190 188 187 186 184 184 188 186 184 184 185 187 187 186 188 187 186 191 195 194 189 187 187 189 193 195 186 170 175
195 192 190 200 202 194 193 189 184 193 197 190 186 188 192 194 191 189 187 186 187 188 187 188 190 191 191 191 192 192 193 193 193 192 190 189 188 187 186 186 189 190 188 187 187 189 189 187 191 192 191 190 192 194 193 190 190 189 190 193 191 184 185
182 187 190 196 201 192 188 191 191 195 198 193 187 188 192 194 191 189 187 186 186 188 189 189 190 191 190 191 191 192 193 193 193 192 191 191 189 187 187 188 190 192 190 189 190 190 190 190 192 191 188 187 189 193 194 192 192 192 193 193 191 189 189
172 184 189 191 197 188 183 191 195 196 199 198 193 190 192 192 191 190 188 187 186 187 190 190 190 191 190 189 190 191 192 193 193 193 192 193 191 187 187 189 192 193 193 194 192 190 192 192 193 191 187 187 190 193 194 194 194 194 195 195 191 191 191
167 181 188 186 192 185 180 192 199 198 199 200 196 191 190 191 190 190 189 187 188 189 189 190 190 192 191 190 190 191 192 193 193 193 194 193 190 187 188 191 194 193 194 196 194 194 194 193 193 193 192 191 192 193 194 195 197 196 196 195 192 192 194
171 176 181 180 188 186 184 196 203 201 200 202 199 191 190 192 191 192 191 189 189 189 189 190 191 192 191 189 190 191 192 193 193 194 195 194 190 188 190 194 195 194 195 197 196 196 196 194 193 194 194 192 192 192 193 195 198 198 197 196 196 194 195
180 172 173 174 182 188 189 196 201 199 197 201 203 197 193 194 195 195 194 191 190 189 189 190 192 191 190 189 190 191 191 192 193 194 195 195 191 189 193 197 197 196 197 197 196 197 197 195 194 195 194 192 191 192 193 195 197 198 198 199 199 199 199
188 164 168 172 177 184 186 187 191 191 188 191 201 204 198 195 195 195 194 192 190 190 190 191 192 191 190 189 190 191 191 191 192 195 195 194 192 192 195 198 197 197 198 198 198 198 197 196 196 196 194 192 192 193 194 195 196 196 198 199 200 201 202
196 160 166 175 179 178 173 172 178 185 184 185 199 206 199 196 197 196 194 193 191 191 191 192 192 190 188 188 190 191 190 190 191 194 195 194 193 194 196 198 198 199 200 199 199 199 199 198 197 196 195 193 193 194 195 196 196 195 198 199 200 202 204
194 162 166 173 176 175 173 171 174 186 189 188 201 206 195 193 198 196 194 194 193 192 192 191 192 189 186 188 190 190 189 189 190 192 194 194 194 195 197 198 198 200 202 201 200 199 199 199 198 197 195 193 194 195 195 196 196 196 198 199 201 203 206
159 154 161 166 168 173 179 176 175 188 193 188 196 197 188 189 197 198 196 196 194 192 191 191 191 188 186 187 189 188 188 188 190 192 194 195 194 195 197 198 197 199 201 202 201 199 199 199 199 197 196 195 195 195 195 196 196 196 197 200 202 204 206
138 152 162 166 170 175 179 176 176 184 190 189 188 188 183 186 195 200 199 197 195 192 191 192 191 189 186 187 188 187 188 189 191 194 196 196 196 196 197 199 199 198 199 201 201 199 197 198 199 199 198 197 197 196 196 196 196 196 197 199 203 205 206
129 148 165 164 167 176 175 171 175 179 182 184 184 185 184 185 193 199 199 198 197 193 191 191 192 189 186 187 189 188 188 191 193 195 198 198 197 197 198 200 201 199 198 199 199 197 197 198 199 200 200 199 198 198 197 195 196 197 198 199 202 205 206
141 159 175 167 163 171 173 172 175 179 182 181 182 185 186 186 193 199 200 198 198 195 192 191 191 189 186 187 189 189 190 193 196 197 199 199 198 198 200 201 203 203 200 198 199 199 198 198 199 201 201 200 200 199 197 196 195 196 198 199 202 204 205
159 169 166 161 164 169 175 176 172 176 182 182 181 184 186 188 193 198 200 198 197 197 194 190 190 189 186 186 188 190 192 195 198 199 200 199 198 199 201 203 204 205 201 199 199 201 201 199 198 199 200 200 200 199 198 197 196 197 198 199 200 203 205
190 188 168 161 173 177 179 176 167 169 177 179 181 184 187 190 191 196 200 196 195 198 196 189 187 188 186 186 188 189 192 196 198 200 200 198 198 200 202 203 205 205 203 200 200 201 203 201 198 198 199 200 199 198 197 198 200 200 200 200 200 202 203
226 213 182 170 176 178 180 180 170 166 170 177 184 186 189 192 192 195 201 199 196 198 196 188 184 186 187 187 187 188 190 194 197 199 200 199 200 202 203 204 205 205 204 201 201 202 204 202 198 196 198 198 197 197 198 201 203 202 204 204 203 201 200
243 238 191 169 173 179 182 182 175 170 173 179 183 186 190 193 192 194 201 203 199 197 197 190 183 185 188 186 185 186 189 193 195 196 198 199 201 202 203 204 206 206 206 204 203 202 202 203 199 195 195 197 197 197 200 203 204 206 207 207 205 203 201
230 236 210 172 171 182 187 184 180 175 176 179 182 187 191 192 194 198 203 206 200 196 197 192 183 184 186 183 182 185 187 190 191 192 195 197 199 200 201 203 204 206 207 208 206 201 201 202 199 194 195 197 198 199 201 203 206 208 208 206 207 205 202
226 227 227 196 174 179 184 183 182 178 177 181 186 191 191 191 195 200 205 210 204 196 197 194 183 181 182 180 180 182 183 185 186 188 190 191 193 194 195 198 201 202 204 205 203 200 199 200 198 197 198 201 202 203 203 204 207 209 208 207 209 207 204
241 221 224 213 185 179 178 179 179 177 180 184 186 189 189 191 195 198 202 209 206 197 198 194 180 176 178 177 177 177 178 179 180 181 181 182 183 185 188 192 194 195 196 199 200 199 198 198 198 199 202 204 204 204 204 205 207 209 210 210 211 211 209
251 236 226 223 212 187 175 177 179 178 180 182 182 185 187 191 195 196 199 206 204 197 197 190 173 170 172 172 171 170 171 171 171 171 171 171 174 178 183 186 188 191 194 196 197 196 194 196 198 202 204 204 205 205 205 205 204 207 211 213 213 213 213
255 254 246 239 238 204 173 176 179 176 177 178 179 184 186 188 192 192 195 201 199 193 191 179 166 165 166 165 164 163 165 164 162 163 165 167 170 175 180 184 186 190 193 193 191 190 190 192 198 204 207 206 208 208 206 205 205 208 213 215 214 213 214
255 258 259 257 255 225 174 174 177 173 174 177 180 183 183 183 187 188 191 195 193 187 182 170 163 164 162 160 161 163 165 165 163 165 168 170 174 176 180 186 190 190 190 189 192 197 199 199 203 208 207 206 208 208 206 206 207 208 210 212 211 210 213
248 250 251 252 256 249 190 174 173 170 172 178 179 180 180 180 183 185 187 190 188 183 176 164 161 164 161 160 162 164 166 168 169 170 171 172 175 176 177 182 187 188 189 192 198 205 204 201 202 204 204 207 211 210 208 209 208 207 208 209 207 207 211
240 240 237 234 244 248 210 173 168 168 172 177 177 177 178 178 179 183 184 184 183 180 173 162 160 163 162 161 162 162 165 169 170 171 170 170 172 173 173 174 177 181 185 189 197 204 203 197 196 198 199 205 213 213 212 213 211 205 204 207 206 206 210
285 271 252 231 233 234 205 168 165 168 171 174 174 175 177 176 176 179 180 177 177 178 171 161 158 159 159 159 160 159 162 167 168 169 168 167 168 169 169 170 171 171 174 179 187 193 192 188 188 189 190 200 214 217 212 214 216 208 204 205 203 203 210
9 334 302 244 175 186 170 154 159 164 166 170 172 174 174 172 169 170 173 172 171 171 166 158 155 155 155 157 159 160 162 164 166 166 165 166 169 168 166 167 167 166 170 175 176 172 167 169 175 179 190 211 225 224 213 211 216 211 205 204 202 203 208
60 28 2 53 94 120 133 133 148 161 164 168 173 174 168 161 158 161 166 166 162 162 159 154 152 151 150 152 155 158 159 160 161 164 165 167 170 166 161 161 161 164 168 165 154 147 148 161 176 187 213 235 234 225 218 219 223 218 208 204 205 208 207
45 66 74 92 113 129 135 133 149 166 167 167 171 168 158 153 153 155 158 158 154 153 152 150 147 145 144 147 150 151 153 155 159 163 164 165 165 158 154 156 157 158 159 154 146 143 145 158 180 198 217 232 226 214 213 218 222 226 223 217 213 209 206
12 17 14 21 77 112 122 138 158 158 145 142 145 145 145 148 147 142 141 145 145 144 142 142 140 139 138 140 142 144 147 151 154 155 155 158 159 152 150 153 151 148 148 149 150 152 154 167 191 206 215 220 211 196 190 199 208 212 218 215 208 203 202
4 5 9 351 326 108 134 160 168 140 116 111 112 113 121 132 132 125 125 131 134 134 135 135 133 133 134 136 138 142 147 147 146 146 147 151 152 148 147 147 144 142 143 146 152 157 165 179 196 206 210 215 207 185 171 182 200 198 193 194 195 196 200
12 43 70 51 289 268 145 153 145 127 116 109 110 112 112 115 116 116 122 127 127 128 131 131 129 128 130 133 135 138 141 138 135 136 136 136 140 143 143 141 140 141 145 150 158 166 176 190 202 207 208 209 201 176 161 170 192 190 184 186 192 198 200
47 51 57 54 40 26 31 85 111 118 115 110 117 122 120 115 115 120 126 127 126 126 126 124 123 122 123 126 128 129 130 129 130 129 125 124 133 141 141 140 141 143 150 161 174 181 188 199 208 211 209 198 181 168 163 170 186 190 190 190 191 196 198
56 56 48 52 60 57 49 66 89 99 100 101 110 116 117 118 122 125 126 125 124 122 118 117 120 121 120 121 122 122 124 128 130 125 118 114 117 118 122 130 140 145 148 159 175 184 195 209 213 215 213 194 174 171 172 175 187 197 198 194 191 192 194
63 62 51 55 68 72 68 71 78 85 91 98 106 110 112 115 118 119 119 119 119 117 117 118 120 120 121 125 126 127 132 137 133 126 122 122 120 116 113 116 128 143 149 151 156 165 190 216 211 208 202 181 174 179 185 187 194 200 199 197 195 195 193
81 84 77 71 72 72 69 71 75 78 82 91 100 104 106 107 108 108 110 112 114 118 121 123 124 124 127 129 130 134 141 141 133 128 130 133 132 127 120 114 114 126 139 140 142 153 172 185 181 177 176 176 177 179 183 190 195 195 191 192 195 198 198
75 81 84 80 77 77 75 72 72 72 72 75 81 86 91 95 96 99 105 111 117 122 124 125 126 127 125 123 126 132 135 131 129 132 136 138 137 131 123 117 112 111 117 123 129 143 156 163 166 167 172 180 182 177 171 173 180 184 188 192 197 199 200
Height
683 684 686 689 689 692 694 695 697 701 706 710 715 719 724 727 730 733 737 740 744 747 751 754 757 759 762 765 768 771 773 775 778 780 782 785 787 789 791 794 796 798 799 801 802 804 805 807 808 809 810 812 814 815 816 818 819 821 822 823 824 824 825
678 681 683 684 685 686 688 690 693 697 700 705 710 716 720 723 726 729 732 736 740 744 747 750 753 755 758 762 765 768 770 773 775 778 780 782 784 787 789 791 793 795 797 798 800 801 803 804 805 806 807 810 812 813 815 816 818 819 820 821 822 823 824
672 676 677 679 679 680 683 686 689 692 695 700 705 711 715 718 722 725 728 732 736 740 743 746 748 751 755 758 762 764 767 770 772 775 777 779 781 784 786 789 791 793 794 795 797 798 800 802 803 804 805 807 810 812 813 815 816 817 817 818 819 821 822
667 670 671 674 673 675 679 682 685 688 691 695 700 705 710 714 718 721 725 728 732 736 739 742 745 748 751 754 757 761 763 766 769 771 774 776 778 781 784 786 787 789 791 792 794 796 798 799 801 802 804 805 808 810 811 813 814 815 816 817 818 819 821
662 664 666 669 669 672 676 678 681 683 687 692 696 701 706 711 716 718 722 725 728 732 736 739 742 744 747 750 753 756 759 763 766 768 771 773 775 778 780 782 784 786 788 789 791 793 795 796 798 800 801 803 805 808 809 811 812 814 815 816 817 818 819
658 660 662 664 665 668 671 674 676 679 685 690 694 699 704 709 713 715 719 722 725 730 733 736 738 740 743 746 749 753 756 759 762 765 767 769 772 775 776 778 780 782 784 786 788 790 791 792 794 796 798 800 803 805 807 809 810 812 813 814 815 816 817
651 653 654 656 658 661 664 668 671 675 681 688 693 698 702 706 710 712 715 718 721 726 729 731 734 736 739 742 746 749 752 756 759 761 764 766 769 771 772 774 776 778 781 782 784 786 787 789 791 793 796 798 800 802 804 806 808 809 811 812 814 815 816
641 644 646 648 652 655 658 662 665 669 675 683 689 694 698 702 705 707 710 713 717 720 723 726 728 731 734 738 741 745 748 752 755 758 760 763 765 767 768 770 772 775 777 778 780 782 784 786 788 790 793 795 797 799 800 802 804 806 808 810 812 813 814
632 637 640 642 646 650 653 656 661 665 670 676 682 688 693 698 700 702 705 708 711 714 717 720 723 726 730 734 737 740 744 748 751 754 756 759 761 763 764 766 769 771 773 774 777 778 781 783 784 787 789 791 794 795 797 798 800 802 804 806 809 810 811
629 633 635 638 643 645 647 651 656 662 666 670 676 682 687 692 696 698 700 703 706 709 712 715 718 722 726 730 733 737 740 744 746 749 752 754 756 758 760 762 765 767 769 771 773 775 777 779 781 783 785 787 789 791 793 795 796 799 800 802 804 806 808
628 633 636 639 642 645 646 648 653 659 662 664 670 675 680 686 692 694 695 698 700 703 707 710 714 718 721 725 729 733 736 739 742 744 747 749 751 753 755 758 760 762 765 768 770 771 773 776 778 780 781 783 785 786 789 791 793 795 797 799 800 802 805
629 633 636 638 640 642 644 646 649 653 657 660 664 669 674 680 686 689 691 693 695 698 702 705 709 712 716 720 724 728 731 734 736 739 741 744 746 749 751 754 756 758 760 763 765 767 769 771 773 775 777 779 781 783 785 787 789 791 793 795 797 799 801
630 633 635 635 637 641 642 644 647 649 653 657 660 664 670 674 680 684 686 688 691 694 697 700 704 707 711 715 719 722 725 728 730 733 736 738 742 745 747 749 752 754 756 759 761 764 765 767 769 771 773 776 778 780 782 784 786 788 790 792 794 796 798
630 634 636 636 638 641 642 644 645 646 649 652 655 661 665 670 675 678 681 684 687 690 692 695 699 702 706 710 714 717 720 722 725 727 730 734 738 741 743 745 747 749 752 755 757 760 761 763 765 767 770 772 775 777 779 781 782 784 786 788 790 792 794
633 635 637 638 639 641 642 644 643 644 646 647 651 656 660 665 670 673 677 680 682 685 687 690 694 697 701 705 708 712 715 718 720 723 727 731 734 737 739 741 744 746 748 751 753 756 759 760 762 764 767 770 772 774 776 778 779 780 782 784 786 788 791
633 633 635 638 640 639 640 641 641 642 644 646 649 653 656 660 664 668 672 674 678 681 682 685 689 692 696 699 703 707 710 714 717 720 723 727 730 732 734 737 740 742 745 747 750 753 756 758 760 762 764 767 769 771 773 775 776 777 778 780 782 784 787
627 625 626 630 635 636 636 638 638 640 642 645 647 649 653 656 659 664 668 670 673 676 678 681 684 687 692 695 698 703 706 710 713 716 720 723 726 728 731 734 737 740 742 745 747 751 754 756 757 759 762 764 766 768 770 772 773 774 776 777 779 781 784
624 622 621 625 630 633 634 634 635 637 639 641 644 647 651 654 657 661 664 666 668 671 674 677 679 683 687 690 695 699 702 706 709 713 717 720 723 726 729 732 735 738 741 743 746 749 751 753 754 756 759 762 764 765 767 768 770 771 773 775 777 780 783
619 618 617 621 625 628 630 629 629 631 633 636 640 643 647 651 655 658 660 662 665 667 671 673 675 679 683 687 691 694 698 702 706 710 714 717 721 724 727 731 733 736 739 741 744 746 748 750 752 754 757 759 761 763 764 765 766 768 771 773 776 779 781
614 613 612 616 620 623 625 625 626 626 628 632 635 638 642 647 651 655 659 662 663 665 667 669 672 675 680 684 688 691 695 699 703 707 712 715 719 722 725 729 731 734 737 739 741 744 745 747 749 751 754 755 757 759 761 762 763 766 769 771 773 776 779
611 610 610 611 615 618 620 621 623 623 625 628 632 636 640 644 647 652 657 660 661 662 664 666 669 672 677 681 685 688 692 697 701 706 710 714 718 721 724 727 729 732 735 736 739 741 742 745 747 748 750 752 754 756 759 760 761 763 767 769 771 774 776
607 606 606 606 609 612 613 614 616 619 621 625 629 633 637 640 644 649 653 657 659 660 663 665 667 670 674 678 682 687 690 695 700 704 708 712 716 719 722 724 727 730 732 734 737 739 740 743 745 746 748 750 752 754 756 758 759 762 765 767 769 771 774
599 598 599 599 600 602 605 607 610 613 618 622 625 628 631 636 641 645 649 653 656 658 661 663 665 668 672 676 681 685 689 694 698 702 706 710 713 716 719 722 725 727 729 732 735 737 739 742 743 746 748 749 751 752 754 756 758 760 761 763 766 768 771
594 594 595 595 596 597 599 601 604 609 614 617 620 623 626 631 636 641 646 650 652 656 658 661 663 666 670 674 679 683 688 692 696 701 705 708 711 715 718 720 723 726 728 731 733 736 738 740 742 745 747 749 750 751 753 754 755 756 758 760 763 766 769
592 592 592 592 592 594 595 595 597 603 609 611 615 618 622 626 632 637 642 646 649 652 655 658 662 665 668 673 678 682 686 690 694 698 702 707 710 713 716 719 722 725 728 731 733 735 737 739 740 743 745 747 749 750 751 753 753 754 756 759 761 764 766
589 589 588 587 587 589 591 592 592 598 604 607 610 614 618 622 628 633 638 642 646 649 651 654 659 663 668 673 677 681 685 689 693 696 700 704 709 712 715 718 721 724 727 729 732 734 737 738 740 741 743 745 747 748 750 751 752 753 754 756 759 761 763
584 583 581 579 580 582 586 588 589 593 599 602 606 610 615 619 624 630 635 639 643 646 648 651 656 661 667 671 676 681 685 689 693 696 698 703 706 709 713 716 718 721 724 727 730 732 735 737 739 740 741 744 745 747 748 749 750 752 753 755 757 759 761
584 584 581 576 576 578 582 585 588 592 597 601 604 608 611 616 621 628 634 637 641 645 648 651 655 660 665 670 675 679 683 687 691 694 697 700 704 707 709 712 715 717 720 724 727 729 733 736 738 739 741 743 745 746 747 748 750 751 752 754 756 758 761
587 589 589 584 583 583 585 588 591 594 597 600 604 607 609 614 620 627 633 637 640 644 648 651 654 658 662 668 673 677 681 685 688 691 694 698 701 704 706 709 712 715 718 721 723 727 731 735 737 739 741 743 744 745 746 748 749 750 752 753 755 757 759
591 592 594 593 591 589 589 592 593 595 597 600 604 607 609 614 620 627 633 637 640 644 647 651 654 657 661 667 672 676 680 684 687 691 694 697 700 702 704 708 711 714 717 721 723 726 730 734 737 739 741 742 743 744 745 746 747 749 750 751 753 755 757
601 597 597 598 596 593 592 594 595 596 599 602 605 608 611 615 621 628 634 637 640 643 647 651 654 658 662 667 671 676 680 685 689 692 694 697 700 701 704 707 709 711 715 720 723 726 729 733 736 738 740 741 741 742 743 744 745 747 748 749 752 754 755
607 602 600 604 605 600 597 597 598 600 602 606 609 612 615 620 624 629 635 639 642 645 648 652 655 659 663 667 672 677 682 686 689 692 695 698 701 702 706 708 709 711 715 719 723 726 728 731 734 736 738 739 739 740 742 742 743 745 746 749 751 752 754
609 603 603 608 610 606 602 601 603 606 609 612 615 617 621 626 629 633 639 642 644 647 650 653 656 660 665 669 674 679 682 685 689 693 696 700 702 705 708 710 712 714 717 720 723 726 728 730 733 734 736 737 738 739 741 742 743 744 745 747 749 751 753
609 606 606 608 611 613 612 610 611 614 617 620 621 624 627 630 633 638 642 645 648 650 652 654 658 662 667 671 675 679 683 686 689 693 696 699 703 706 708 710 713 716 719 721 723 725 726 729 731 732 734 735 737 738 740 742 742 742 744 746 747 749 751
611 612 613 614 617 623 624 621 619 621 624 626 627 629 631 634 637 641 644 647 650 651 652 656 660 664 668 672 676 680 683 687 690 693 696 700 703 705 707 710 714 717 719 722 723 724 725 727 729 731 733 734 735 737 738 739 740 741 742 744 746 748 750
619 619 621 622 624 628 630 627 625 626 629 631 632 634 635 638 641 644 646 649 650 651 653 657 661 665 669 673 676 680 683 686 690 694 697 700 704 705 706 709 714 718 720 723 724 725 726 727 728 730 731 733 734 735 736 737 738 740 742 744 746 747 749
626 627 629 630 631 632 633 632 631 632 634 636 637 638 639 641 644 646 648 650 652 654 656 659 663 667 671 674 678 681 684 687 691 694 697 700 703 704 705 708 715 719 722 723 724 725 726 727 728 730 731 732 733 734 736 737 738 740 742 743 745 747 748
631 632 635 635 635 637 637 637 637 638 639 641 641 641 642 644 646 648 651 653 655 658 660 662 665 668 672 676 680 684 687 689 692 695 698 702 704 705 705 708 714 720 723 724 725 726 727 728 728 730 731 732 733 734 735 737 739 740 742 743 745 746 748